Regional Weather Roundup
Issued by NWS Charleston, WV

Home | Current Version | Previous Version | Graphics & Text | Print | Product List | Glossary On
Versions: 1 2 3 4 5 6 7 8 9 10 11 12 13 14 15 16 17 18 19 20 21 22 23 24 25 26 27 28 29 30 31 32 33 34 35 36 37 38 39 40 41 42 43 44 45 46 47 48 49 50
000
ASUS41 KRLX 010710
RWRRLX
West Virginia Regional Weather Roundup
National Weather Service Charleston WV
300 AM EDT WED OCT 01 2014

Note: "fair" indicates few or no clouds below 12,000 feet with no
significant weather and/or obstructions to visibility.

WVZ003-010800-
Northern Panhandle of West Virginia

CITY           SKY/WX    TMP DP  RH WIND       PRES   REMARKS
WHEELING       CLOUDY    58  55  90 NE5       29.97S
$$

WVZ009-010800-
Northwest West Virginia

CITY           SKY/WX    TMP DP  RH WIND       PRES   REMARKS
PARKERSBURG    CLOUDY    57  56  96 CALM      29.99S FOG
$$

WVZ006-010800-
Western West Virginia

CITY           SKY/WX    TMP DP  RH WIND       PRES   REMARKS
HUNTINGTON     CLOUDY    61  58  90 CALM      29.96S
$$

WVZ015-010800-
West Central West Virginia

CITY           SKY/WX    TMP DP  RH WIND       PRES   REMARKS
CHARLESTON     PTCLDY    60  58  92 CALM      29.96S
$$

WVZ031-010800-
North Central West Virginia

CITY           SKY/WX    TMP DP  RH WIND       PRES   REMARKS
CLARKSBURG     MOCLDY    57  56  96 CALM      29.96F FOG
MORGANTOWN     FOG       56  53  90 CALM      29.98S VSB 1/4
$$

WVZ035-042-045-010800-
South Central West Virginia

CITY           SKY/WX    TMP DP  RH WIND       PRES   REMARKS
BECKLEY        CLEAR     58  51  78 S5        30.00S
BLUEFIELD      CLEAR     58  51  78 W6        30.01F
LEWISBURG      CLEAR     52  49  89 CALM      29.99S
$$

WVZ047-010800-
Northern Mountains of West Virginia

CITY           SKY/WX    TMP DP  RH WIND       PRES   REMARKS
ELKINS         MOCLDY    54  54 100 CALM      29.99F
$$

WVZ052-010800-
Eastern Panhandle of West Virginia

CITY           SKY/WX    TMP DP  RH WIND       PRES   REMARKS
MARTINSBURG    CLOUDY    62  58  86 NW5       29.98R FOG
PETERSBURG     RAIN     N/A N/A N/A CALM      29.99S
$$


USA.gov is the U.S. government's official web portal to all federal, state and local government web resources and services.